Find Local Weather

World > North America > United States > Montana

Fort Benton, Montana Regional Weather

Lat: 47.83N, Lon: 110.66W
Wx Zone: MTZ013
Warning FLW WEATHER ALERT - WINTER WEATHER ADVISORY (More Info. Click Here) Warning
Feedback
Expires:201811151200;;336609
ASUS45 KTFX 151110
RWRMT 
MONTANA REGIONAL WEATHER ROUNDUP
NATIONAL WEATHER SERVICE GREAT FALLS MT
400 AM MST THU NOV 15 2018

NOTE: "FAIR" INDICATES FEW OR NO CLOUDS BELOW 12000 FEET WITH NO
SIGNIFICANT WEATHER AND/OR OBSTRUCTIONS TO VISIBILITY.


MTZ011-013-016-021-045-047-050-051-151200-
NORTH CENTRAL MONTANA
  
CITY           SKY/WX    TMP DP  RH WIND       PRES   REMARKS
HAVRE          FAIR      33  27  78 SW12      30.09R WCI  24          
LEWISTOWN      FAIR      36  26  67 NE3       30.11S                  
CHINOOK          N/A     36  28  75 W7        30.08S WCI  30          
GRASS RANGE    MOCLDY    41  27  57 SW8       30.06S                  
JUDITH GAP     FAIR      40  24  52 W17       30.12R                  
ROY            FAIR      40  27  59 NW28      30.04F                  
STANFORD       FAIR      40  25  54 W6        30.11S                  
WINIFRED         N/A     37  28  70 NW3       30.09R                  
$$


SKY/WX - Weather  TMP - Temperature  DP - Dew Point  RH - Relative Humidity
WIND - Wind Direction/Speed PRES - Barometric Pressure